Regional Weather Roundup
Issued by NWS

Home | Current Version | Previous Version | Graphics & Text | Print | Product List | Glossary On
Versions: 1 2 3 4 5 6 7 8 9 10 11 12 13 14 15 16 17 18 19 20 21 22 23 24 25 26 27 28 29 30 31 32 33 34 35 36 37 38 39 40 41 42 43 44 45 46 47 48 49 50
000
ASUS43 KLMK 012002
RWRKY
KENTUCKY REGIONAL WEATHER ROUNDUP
NATIONAL WEATHER SERVICE LOUISVILLE KY
300 PM EST SUN FEB 01 2015

NOTE "FAIR" INDICATES FEW OR NO CLOUDS BELOW 12,000 FEET
WITH NO SIGNIFICANT WEATHER AND/OR OBSTRUCTIONS TO VISIBILITY.

KYZ001>023-026-027-061>063-070>075-012100-
WESTERN AND SOUTH CENTRAL KENTUCKY

CITY           SKY/WX    TMP DP  RH WIND       PRES   REMARKS
PADUCAH        LGT RAIN  51  49  92 SW8       29.63F FOG
HENDERSON      CLOUDY    46  43  87 S9        29.62F
OWENSBORO      LGT RAIN  46  45  97 S16       29.65F FOG
HOPKINSVILLE   DRIZZLE   50  48  93 S12       29.67F
BOWLING GREEN  RAIN      48  45  89 S13       29.72F FOG
GLASGOW        NOT AVBL
$$

KYZ024-025-028>034-038-045-046-053-012100-
NORTH CENTRAL KENTUCKY

CITY           SKY/WX    TMP DP  RH WIND       PRES   REMARKS
LOUISVILLE/SDF LGT RAIN  45  42  89 S14       29.69F FOG
LOUISVILLE/LOU LGT RAIN  44  41  89 S8        29.70F FOG
FORT KNOX      LGT RAIN  44  42  93 S13       29.68F
$$

KYZ035>037-039>044-047>052-055>060-089>105-012100-
NORTHEAST KENTUCKY

CITY           SKY/WX    TMP DP  RH WIND       PRES   REMARKS
LEXINGTON      LGT RAIN  44  40  85 S16       29.74F FOG
COVINGTON      LGT RAIN  44  39  82 S15G24    29.69F
FRANKFORT      LGT RAIN  43  40  89 S10       29.71F FOG
$$

KYZ054-064>069-076>088-106>120-012100-
SOUTHEAST KENTUCKY

CITY           SKY/WX    TMP DP  RH WIND       PRES   REMARKS
JACKSON        LGT RAIN  47  35  63 S13G33    29.79F
LONDON         LGT RAIN  47  37  68 S16G23    29.79F
SOMERSET       NOT AVBL
MIDDLESBORO    NOT AVBL
MONTICELLO     CLOUDY    49  43  80 S17       29.79F
$$



USA.gov is the U.S. government's official web portal to all federal, state and local government web resources and services.